NKS1 KFLL-KFLL

Flight info

Callsign NKS1
Flight time 0h 59m
Altitude 39000
Route FEALX2 FEALX 2610N07918W 2610N07938W 2555N07938W 2555N07918W 2540N07918W 2540N07858W 2610N07858W 2610N07838W 2555N07838W 2555N07858W 2540N07858W 2540N07818W 2610N07818W 2610N07817W 2540N07818W 2540N07758W 2610N07758W 2610N07738W 2555N07738W 2555N07758W 2540N07738W 2540N07718W 2540N07717W 2540N07718W 2610N07718W 2540N07718W 2540N07658W 2610N07658W 2610N07648W 2611N07648W 2611N07708W 2610N07708W 2610N07658W 2610N07658W 2540N07658W 2540N07938W DEKAL DEKAL9
Aircraft A319/M-SDE3FGHIRWY/LB1

Departure

Time 2026-05-06 00:03
Airport Fort Lauderdale Hollywood International Airport (KFLL)

Arrival

Time 2026-05-06 01:03
Airport Fort Lauderdale Hollywood International Airport (KFLL)
Time Latitude Longitude Altitude Speed Heading
2026-05-05 23:44 26.07049 -80.14669 16 ft 0 kts 17°
2026-05-05 23:52 26.07048 -80.14669 16 ft 0 kts 17°
2026-05-05 23:54 26.07047 -80.14670 16 ft 2 kts 17°
2026-05-05 23:54 26.07022 -80.14676 16 ft 4 kts
2026-05-05 23:54 26.06998 -80.14671 18 ft 4 kts 303°
2026-05-05 23:55 26.06994 -80.14662 16 ft 1 kts 270°
2026-05-05 23:56 26.06994 -80.14664 16 ft 2 kts 270°
2026-05-05 23:56 26.06987 -80.14705 16 ft 8 kts 245°
2026-05-05 23:57 26.07006 -80.14776 16 ft 14 kts 320°
2026-05-05 23:57 26.07093 -80.14867 17 ft 20 kts 315°
2026-05-05 23:57 26.07170 -80.14981 16 ft 16 kts 257°
2026-05-05 23:57 26.07184 -80.15099 16 ft 20 kts 310°
2026-05-05 23:58 26.07206 -80.15245 16 ft 13 kts 273°
2026-05-05 23:58 26.07283 -80.15302 16 ft 18 kts 360°
2026-05-05 23:58 26.07413 -80.15299 16 ft 17 kts
2026-05-05 23:58 26.07490 -80.15380 16 ft 20 kts 269°
2026-05-05 23:59 26.07491 -80.15545 16 ft 23 kts 270°
2026-05-05 23:59 26.07493 -80.15675 16 ft 17 kts 271°
2026-05-05 23:59 26.07494 -80.15814 16 ft 19 kts 271°
2026-05-05 23:59 26.07494 -80.15977 16 ft 22 kts 270°
2026-05-06 00:00 26.07494 -80.16107 16 ft 11 kts 270°
2026-05-06 00:00 26.07495 -80.16201 16 ft 14 kts 270°
2026-05-06 00:00 26.07495 -80.16315 16 ft 16 kts 270°
2026-05-06 00:00 26.07496 -80.16451 16 ft 19 kts 270°
2026-05-06 00:01 26.07498 -80.16574 16 ft 15 kts 271°
2026-05-06 00:01 26.07498 -80.16605 16 ft 2 kts 271°
2026-05-06 00:01 26.07507 -80.16633 19 ft 4 kts 317°
2026-05-06 00:01 26.07546 -80.16633 16 ft 7 kts 10°
2026-05-06 00:02 26.07603 -80.16641 17 ft 10 kts 352°
2026-05-06 00:02 26.07677 -80.16629 18 ft 12 kts 37°
2026-05-06 00:02 26.07695 -80.16545 18 ft 0 kts 91°
2026-05-06 00:02 26.07695 -80.16544 18 ft 1 kts 91°
2026-05-06 00:03 26.07694 -80.16383 21 ft 53 kts 90°
2026-05-06 00:03 26.07691 -80.15715 17 ft 119 kts 90°
2026-05-06 00:03 26.07683 -80.14661 469 ft 135 kts 86°
2026-05-06 00:03 26.07698 -80.13607 1176 ft 143 kts 88°
2026-05-06 00:04 26.07718 -80.12413 1687 ft 166 kts 88°
2026-05-06 00:04 26.07740 -80.11036 2330 ft 190 kts 87°
2026-05-06 00:04 26.07763 -80.09477 3002 ft 214 kts 87°
2026-05-06 00:04 26.07785 -80.07726 3692 ft 239 kts 88°
2026-05-06 00:05 26.08166 -80.03711 5268 ft 281 kts 64°
2026-05-06 00:05 26.09190 -80.01853 6426 ft 285 kts 54°
2026-05-06 00:05 26.10297 -79.99995 7545 ft 290 kts 54°
2026-05-06 00:06 26.11425 -79.98103 8584 ft 297 kts 54°
2026-05-06 00:06 26.12578 -79.96166 9607 ft 303 kts 54°
2026-05-06 00:06 26.13761 -79.94171 10353 ft 320 kts 54°
2026-05-06 00:06 26.15035 -79.92026 10763 ft 344 kts 54°
2026-05-06 00:07 26.16393 -79.89736 11207 ft 362 kts 54°
2026-05-06 00:07 26.17794 -79.87367 11952 ft 369 kts 54°
2026-05-06 00:07 26.19207 -79.84967 12785 ft 373 kts 54°
2026-05-06 00:07 26.20637 -79.82536 13616 ft 377 kts 54°
2026-05-06 00:08 26.22082 -79.80083 14368 ft 380 kts 54°
2026-05-06 00:08 26.23542 -79.77611 15078 ft 384 kts 54°
2026-05-06 00:08 26.25020 -79.75111 15774 ft 389 kts 54°
2026-05-06 00:08 26.26456 -79.72538 16448 ft 396 kts 60°
2026-05-06 00:09 26.27441 -79.69648 17134 ft 404 kts 73°
2026-05-06 00:09 26.27832 -79.66516 17824 ft 412 kts 87°
2026-05-06 00:09 26.27582 -79.63315 18478 ft 420 kts 101°
2026-05-06 00:09 26.26715 -79.60186 19054 ft 426 kts 110°
2026-05-06 00:10 26.25681 -79.57076 19635 ft 431 kts 110°
2026-05-06 00:10 26.24634 -79.53929 20208 ft 436 kts 110°
2026-05-06 00:10 26.23577 -79.50745 20768 ft 441 kts 110°
2026-05-06 00:10 26.22506 -79.47519 21323 ft 447 kts 110°
2026-05-06 00:11 26.21419 -79.44257 21854 ft 451 kts 110°
2026-05-06 00:11 26.20323 -79.40969 22358 ft 456 kts 110°
2026-05-06 00:11 26.19193 -79.37647 22846 ft 461 kts 113°
2026-05-06 00:11 26.17481 -79.34636 23304 ft 464 kts 134°
2026-05-06 00:12 26.14933 -79.32479 23746 ft 460 kts 157°
2026-05-06 00:12 26.11903 -79.31472 24141 ft 453 kts 179°
2026-05-06 00:12 26.08822 -79.31729 24539 ft 441 kts 201°
2026-05-06 00:12 26.06109 -79.33185 24936 ft 429 kts 223°
2026-05-06 00:13 26.04171 -79.35555 25340 ft 416 kts 244°
2026-05-06 00:13 26.03218 -79.38527 25748 ft 407 kts 266°
2026-05-06 00:13 26.03397 -79.41621 26157 ft 402 kts 287°
2026-05-06 00:13 26.04268 -79.44577 26591 ft 403 kts 290°
2026-05-06 00:14 26.05175 -79.47531 27035 ft 405 kts 290°
2026-05-06 00:14 26.06091 -79.50504 27464 ft 407 kts 290°
2026-05-06 00:14 26.07031 -79.53484 27913 ft 409 kts 293°
2026-05-06 00:14 26.08226 -79.56362 28329 ft 411 kts 294°
2026-05-06 00:15 26.08819 -79.59482 28725 ft 421 kts 274°
2026-05-06 00:15 26.08282 -79.62721 29123 ft 437 kts 253°
2026-05-06 00:15 26.06648 -79.65632 29522 ft 457 kts 233°
2026-05-06 00:15 26.04082 -79.67817 29887 ft 478 kts 213°
2026-05-06 00:16 26.00862 -79.68963 30235 ft 497 kts 193°
2026-05-06 00:16 25.97360 -79.68881 30537 ft 514 kts 173°
2026-05-06 00:16 25.93964 -79.67533 30859 ft 525 kts 152°
2026-05-06 00:16 25.91089 -79.65038 31280 ft 528 kts 132°
2026-05-06 00:17 25.89046 -79.61678 31719 ft 525 kts 112°
2026-05-06 00:17 25.88055 -79.57826 32160 ft 516 kts 91°
2026-05-06 00:17 25.88205 -79.53922 32609 ft 500 kts 71°
2026-05-06 00:17 25.89155 -79.50238 33094 ft 495 kts 66°
2026-05-06 00:18 25.90163 -79.46593 33607 ft 494 kts 66°
2026-05-06 00:18 25.91119 -79.42930 34119 ft 498 kts 71°
2026-05-06 00:18 25.91308 -79.39048 34543 ft 514 kts 92°
2026-05-06 00:18 25.90355 -79.35180 34985 ft 525 kts 112°
2026-05-06 00:19 25.88349 -79.31788 35420 ft 529 kts 133°
2026-05-06 00:19 25.85506 -79.29247 35841 ft 525 kts 154°
2026-05-06 00:19 25.82146 -79.27826 36264 ft 513 kts 174°
2026-05-06 00:19 25.78644 -79.27639 36675 ft 497 kts 193°
2026-05-06 00:20 25.75279 -79.28288 37107 ft 489 kts 200°
2026-05-06 00:20 25.71948 -79.29046 37516 ft 494 kts 193°
2026-05-06 00:20 25.68469 -79.28866 37908 ft 511 kts 172°
2026-05-06 00:20 25.65128 -79.27439 38307 ft 521 kts 151°
2026-05-06 00:21 25.62319 -79.24905 38687 ft 524 kts 130°
2026-05-06 00:21 25.60354 -79.21546 38953 ft 519 kts 109°
2026-05-06 00:21 25.59422 -79.17747 39032 ft 505 kts 89°
2026-05-06 00:21 25.59618 -79.13956 39048 ft 485 kts 68°
2026-05-06 00:22 25.60876 -79.10611 39048 ft 460 kts 46°
2026-05-06 00:22 25.62977 -79.08106 39046 ft 434 kts 27°
2026-05-06 00:22 25.64608 -79.06827 39052 ft 433 kts 26°
2026-05-06 00:22 25.66841 -79.04496 39044 ft 457 kts 45°
2026-05-06 00:23 25.68303 -79.01274 39050 ft 483 kts 66°
2026-05-06 00:23 25.68741 -78.97524 39049 ft 503 kts 85°
2026-05-06 00:23 25.68537 -78.93630 39044 ft 506 kts 86°
2026-05-06 00:23 25.68796 -78.89811 39041 ft 487 kts 67°
2026-05-06 00:24 25.70088 -78.86467 39037 ft 461 kts 46°
2026-05-06 00:24 25.72206 -78.83985 39031 ft 431 kts 24°
2026-05-06 00:24 25.74815 -78.82640 39025 ft 402 kts
2026-05-06 00:24 25.77504 -78.82554 39027 ft 379 kts 341°
2026-05-06 00:25 25.79919 -78.83560 39020 ft 370 kts 330°
2026-05-06 00:25 25.84651 -78.85881 39016 ft 373 kts 332°
2026-05-06 00:26 25.89098 -78.88778 39023 ft 371 kts 322°
2026-05-06 00:26 25.93373 -78.92000 39028 ft 373 kts 326°
2026-05-06 00:27 25.98076 -78.94512 39032 ft 378 kts 335°
2026-05-06 00:27 26.03198 -78.96050 39039 ft 385 kts 343°
2026-05-06 00:28 26.08567 -78.96670 39051 ft 393 kts 351°
2026-05-06 00:28 26.11321 -78.96467 39045 ft 407 kts
2026-05-06 00:28 26.14021 -78.95325 39049 ft 426 kts 20°
2026-05-06 00:28 26.16359 -78.93159 39052 ft 454 kts 41°
2026-05-06 00:29 26.17964 -78.90025 39051 ft 481 kts 62°
2026-05-06 00:29 26.18571 -78.86285 39037 ft 503 kts 82°
2026-05-06 00:29 26.18276 -78.82365 39039 ft 514 kts 94°
2026-05-06 00:30 26.16615 -78.74568 39021 ft 526 kts 111°
2026-05-06 00:30 26.12660 -78.67690 39020 ft 531 kts 133°
2026-05-06 00:30 26.09877 -78.65025 39010 ft 526 kts 152°
2026-05-06 00:31 26.06571 -78.63448 39013 ft 512 kts 173°
2026-05-06 00:31 26.03103 -78.63080 39021 ft 494 kts 189°
2026-05-06 00:31 25.99666 -78.63185 39017 ft 492 kts 192°
2026-05-06 00:31 25.96367 -78.63864 39012 ft 474 kts 208°
2026-05-06 00:32 25.93421 -78.65311 39013 ft 456 kts 221°
2026-05-06 00:32 25.90914 -78.67340 39013 ft 438 kts 233°
2026-05-06 00:32 25.88948 -78.69828 39016 ft 421 kts 246°
2026-05-06 00:32 25.87593 -78.72636 39015 ft 405 kts 258°
2026-05-06 00:33 25.86836 -78.75591 39017 ft 393 kts 269°
2026-05-06 00:33 25.86992 -78.81473 39021 ft 376 kts 288°
2026-05-06 00:34 25.89076 -78.86696 39027 ft 370 kts 305°
2026-05-06 00:34 25.91228 -78.91898 39032 ft 378 kts 289°
2026-05-06 00:35 25.91473 -78.97806 39025 ft 399 kts 264°
2026-05-06 00:35 25.90350 -79.00698 39026 ft 422 kts 245°
2026-05-06 00:35 25.88232 -79.03086 39026 ft 450 kts 223°
2026-05-06 00:35 25.85322 -79.04569 39021 ft 476 kts 202°
2026-05-06 00:36 25.81956 -79.04893 39020 ft 498 kts 181°
2026-05-06 00:36 25.78555 -79.03956 39013 ft 512 kts 160°
2026-05-06 00:36 25.75473 -79.01936 39012 ft 519 kts 143°
2026-05-06 00:37 25.69853 -78.96930 39007 ft 517 kts 158°
2026-05-06 00:37 25.66498 -78.95593 39030 ft 510 kts 172°
2026-05-06 00:37 25.63027 -78.94888 39033 ft 506 kts 177°
2026-05-06 00:37 25.59545 -78.94526 39015 ft 496 kts 189°
2026-05-06 00:38 25.56178 -78.95016 38397 ft 483 kts 204°
2026-05-06 00:38 25.53114 -78.96405 37541 ft 471 kts 219°
2026-05-06 00:38 25.50489 -78.98476 36605 ft 457 kts 231°
2026-05-06 00:38 25.48368 -79.01020 35294 ft 446 kts 242°
2026-05-06 00:39 25.46813 -79.03952 33884 ft 439 kts 253°
2026-05-06 00:39 25.45889 -79.07129 32595 ft 428 kts 265°
2026-05-06 00:39 25.45590 -79.10296 32145 ft 401 kts 274°
2026-05-06 00:39 25.45784 -79.13318 31410 ft 391 kts 284°
2026-05-06 00:40 25.46488 -79.16213 30614 ft 390 kts 293°
2026-05-06 00:40 25.47693 -79.18905 29732 ft 392 kts 303°
2026-05-06 00:40 25.49353 -79.21307 28835 ft 397 kts 312°
2026-05-06 00:40 25.51264 -79.23531 27895 ft 401 kts 313°
2026-05-06 00:41 25.53164 -79.25748 26953 ft 403 kts 313°
2026-05-06 00:41 25.55080 -79.27995 26417 ft 400 kts 312°
2026-05-06 00:41 25.56989 -79.30233 25856 ft 398 kts 312°
2026-05-06 00:41 25.58899 -79.32469 25302 ft 399 kts 312°
2026-05-06 00:42 25.60796 -79.34683 24694 ft 394 kts 312°
2026-05-06 00:42 25.62697 -79.36903 24113 ft 390 kts 312°
2026-05-06 00:42 25.64556 -79.39074 23526 ft 388 kts 311°
2026-05-06 00:42 25.66407 -79.41241 22898 ft 385 kts 311°
2026-05-06 00:43 25.68243 -79.43391 22333 ft 383 kts 312°
2026-05-06 00:43 25.70069 -79.45530 21761 ft 381 kts 312°
2026-05-06 00:43 25.71885 -79.47658 21213 ft 378 kts 312°
2026-05-06 00:43 25.73688 -79.49771 20654 ft 376 kts 312°
2026-05-06 00:44 25.75456 -79.51845 20124 ft 374 kts 312°
2026-05-06 00:44 25.77237 -79.53936 19601 ft 372 kts 312°
2026-05-06 00:44 25.79010 -79.56016 19080 ft 370 kts 312°
2026-05-06 00:44 25.80776 -79.58092 18587 ft 369 kts 312°
2026-05-06 00:45 25.82534 -79.60164 18051 ft 368 kts 312°
2026-05-06 00:45 25.84249 -79.62255 17514 ft 365 kts 308°
2026-05-06 00:45 25.85649 -79.64591 16912 ft 363 kts 298°
2026-05-06 00:45 25.86726 -79.67113 16191 ft 360 kts 294°
2026-05-06 00:46 25.87771 -79.69625 15505 ft 357 kts 295°
2026-05-06 00:46 25.88813 -79.72105 14808 ft 354 kts 295°
2026-05-06 00:46 25.89855 -79.74574 14088 ft 352 kts 295°
2026-05-06 00:46 25.90890 -79.77035 13293 ft 350 kts 295°
2026-05-06 00:47 25.91914 -79.79473 12542 ft 347 kts 294°
2026-05-06 00:47 25.92926 -79.81888 11792 ft 343 kts 294°
2026-05-06 00:47 25.93928 -79.84285 11042 ft 341 kts 294°
2026-05-06 00:47 25.94907 -79.86631 10766 ft 325 kts 294°
2026-05-06 00:48 25.95832 -79.88845 10645 ft 307 kts 294°
2026-05-06 00:48 25.96707 -79.90937 10517 ft 291 kts 294°
2026-05-06 00:48 25.97538 -79.92946 10276 ft 283 kts 292°
2026-05-06 00:48 25.98104 -79.95014 10197 ft 279 kts 285°
2026-05-06 00:49 25.98629 -79.97085 10137 ft 279 kts 285°
2026-05-06 00:49 25.99156 -79.99153 10033 ft 278 kts 285°
2026-05-06 00:49 25.99682 -80.01232 9577 ft 281 kts 285°
2026-05-06 00:49 26.00202 -80.03309 8891 ft 278 kts 285°
2026-05-06 00:50 26.00718 -80.05372 8232 ft 275 kts 285°
2026-05-06 00:50 26.01227 -80.07406 7629 ft 272 kts 285°
2026-05-06 00:50 26.01733 -80.09418 7037 ft 270 kts 285°
2026-05-06 00:50 26.02236 -80.11417 6442 ft 268 kts 285°
2026-05-06 00:51 26.02736 -80.13403 5825 ft 265 kts 285°
2026-05-06 00:51 26.03234 -80.15386 5242 ft 269 kts 285°
2026-05-06 00:51 26.03734 -80.17376 4901 ft 265 kts 285°
2026-05-06 00:51 26.04227 -80.19342 4484 ft 264 kts 285°
2026-05-06 00:52 26.04722 -80.21322 4005 ft 266 kts 286°
2026-05-06 00:52 26.05209 -80.23275 3793 ft 258 kts 286°
2026-05-06 00:52 26.05677 -80.25152 3667 ft 247 kts 286°
2026-05-06 00:52 26.06126 -80.26949 3552 ft 236 kts 286°
2026-05-06 00:53 26.06548 -80.28644 3447 ft 219 kts 286°
2026-05-06 00:53 26.06936 -80.30214 3357 ft 199 kts 287°
2026-05-06 00:53 26.07286 -80.31634 3269 ft 182 kts 288°
2026-05-06 00:53 26.07615 -80.32958 3225 ft 169 kts 287°
2026-05-06 00:54 26.07912 -80.34154 3145 ft 151 kts 288°
2026-05-06 00:54 26.08184 -80.35236 3054 ft 142 kts 288°
2026-05-06 00:54 26.08447 -80.36276 2987 ft 139 kts 289°
2026-05-06 00:54 26.08709 -80.37300 2927 ft 138 kts 289°
2026-05-06 00:55 26.09205 -80.38192 2858 ft 135 kts 319°
2026-05-06 00:55 26.09983 -80.38729 2783 ft 131 kts 343°
2026-05-06 00:55 26.10862 -80.38844 2729 ft 126 kts
2026-05-06 00:55 26.11682 -80.38550 2677 ft 123 kts 32°
2026-05-06 00:56 26.12316 -80.37926 2619 ft 123 kts 53°
2026-05-06 00:56 26.12674 -80.37068 2550 ft 124 kts 76°
2026-05-06 00:56 26.12692 -80.36117 2491 ft 124 kts 98°
2026-05-06 00:56 26.12353 -80.35233 2435 ft 126 kts 121°
2026-05-06 00:57 26.11860 -80.34429 2376 ft 125 kts 120°
2026-05-06 00:57 26.11379 -80.33625 2312 ft 125 kts 120°
2026-05-06 00:57 26.10900 -80.32824 2259 ft 124 kts 120°
2026-05-06 00:57 26.10425 -80.32026 2196 ft 124 kts 120°
2026-05-06 00:58 26.09949 -80.31228 2139 ft 124 kts 120°
2026-05-06 00:58 26.09474 -80.30432 2082 ft 123 kts 120°
2026-05-06 00:58 26.09001 -80.29639 2021 ft 123 kts 119°
2026-05-06 00:58 26.08527 -80.28845 1963 ft 123 kts 119°
2026-05-06 00:59 26.08057 -80.28047 1899 ft 124 kts 119°
2026-05-06 00:59 26.07812 -80.27151 1804 ft 123 kts 88°
2026-05-06 00:59 26.07811 -80.26207 1671 ft 121 kts 92°
2026-05-06 00:59 26.07776 -80.25280 1530 ft 119 kts 90°
2026-05-06 01:00 26.07755 -80.24359 1370 ft 119 kts 89°
2026-05-06 01:00 26.07742 -80.23440 1221 ft 119 kts 88°
2026-05-06 01:00 26.07732 -80.22524 1073 ft 119 kts 88°
2026-05-06 01:00 26.07724 -80.21610 918 ft 118 kts 90°
2026-05-06 01:01 26.07714 -80.20716 716 ft 115 kts 90°
2026-05-06 01:01 26.07706 -80.19833 606 ft 114 kts 87°
2026-05-06 01:01 26.07704 -80.18952 515 ft 113 kts 88°
2026-05-06 01:01 26.07707 -80.18072 325 ft 115 kts 89°
2026-05-06 01:02 26.07700 -80.17473 250 ft 114 kts 89°
2026-05-06 01:02 26.07694 -80.16597 70 ft 112 kts 88°
2026-05-06 01:02 26.07687 -80.15744 19 ft 102 kts 89°
2026-05-06 01:02 26.07691 -80.15242 16 ft 52 kts 89°
2026-05-06 01:03 26.07685 -80.14936 18 ft 28 kts 91°
2026-05-06 01:03 26.07695 -80.14761 20 ft 25 kts 83°
2026-05-06 01:03 26.07735 -80.14599 19 ft 16 kts 67°
2026-05-06 01:03 26.07791 -80.14483 18 ft 13 kts 64°
2026-05-06 01:04 26.07832 -80.14387 18 ft 11 kts 21°
2026-05-06 01:04 26.07893 -80.14383 16 ft 1 kts 23°
2026-05-06 01:04 26.07905 -80.14372 16 ft 0 kts 41°